[[{"header":{"parameterUnit":"m.s-1","parameterCategory":1,"la1":30.2991,"la2":30.254,"lo1":-89.0895,"lo2":-89.0444,"dy":0.0017,"dx":0.0017,"nx":28,"ny":28,"refTime":"2025-12-20T09:00:00:Z","depth":0,"parameterNumber":2,"parameterNumberName":"U-component_of_WINDS"},"data":[0,0,0,0,0,0,0,0,0,0,0,0,0,0,0,0,0,0,0,0,0,0,0,0,0,0,0,0,0,0,0,0,0,0,0,0,0,0,0,0,0,0,0,0,0,0,0,0,0,0,0,0,0,0,0,0,0,0,-1.6772,-1.6775,0,-1.7027,-1.703,-1.7033,-1.7151,-1.7151,-1.7151,-1.7151,-1.7414,-1.7421,-1.7428,0,0,0,0,0,0,0,0,0,0,0,0,0,-1.6388,-1.6395,-1.6772,-1.6775,-1.6778,-1.7027,-1.703,-1.7034,-1.7151,-1.7151,-1.7151,-1.7151,-1.7411,-1.742,-1.7429,0,0,0,0,0,0,0,0,0,0,0,0,0,-1.659,-1.6397,-1.6771,-1.6867,-1.6878,-1.7026,-1.703,-1.7035,-1.7151,-1.7151,-1.7151,-1.715,-1.7409,-1.7419,-1.743,-1.7503,0,0,-1.7463,-1.7467,0,0,0,0,0,0,0,0,-1.6579,-1.6604,-1.685,-1.6861,-1.6873,-1.7057,-1.6992,-1.7192,-1.7151,-1.7048,-1.7151,-1.715,-1.7295,-1.7316,-1.7364,-1.7515,-1.7526,-1.7464,-1.747,-1.7475,-1.7478,0,0,0,0,0,0,0,-1.6564,-1.6594,-1.6873,-1.6853,-1.6867,-1.6898,-1.6926,-1.703,-1.717,-1.7057,-1.7066,-1.7094,-1.7302,-1.7353,-1.7371,-1.753,-1.7463,-1.7473,-1.748,-1.7484,-1.7754,-1.7755,0,0,0,0,0,0,-1.6535,-1.6581,-1.6865,-1.6881,-1.6722,-1.6905,-1.6936,-1.6998,-1.7169,-1.7195,-1.7094,-1.7099,-1.7335,-1.7359,-1.7381,-1.7478,-1.7475,-1.7485,-1.7491,-1.7753,-1.7754,-1.7755,0,0,0,0,0,0,-1.6526,-1.6559,-1.6855,-1.6734,-1.6774,-1.6912,-1.698,-1.7004,-1.7055,-1.7198,-1.7224,-1.7121,-1.7336,-1.7366,-1.7472,-1.7489,-1.749,-1.75,-1.7752,-1.7753,-1.7754,-1.7672,0,0,0,0,0,0,-1.6514,-1.6555,-1.6584,-1.6733,-1.6779,-1.694,-1.6981,-1.7009,-1.7073,-1.7082,-1.723,-1.7254,-1.7338,-1.7455,-1.7482,-1.7504,-1.7508,-1.7752,-1.7753,-1.7754,-1.7674,-1.767,-1.7667,0,0,0,0,0,-1.65,-1.6551,-1.6584,-1.6618,-1.6818,-1.6941,-1.6967,-1.7062,-1.7074,-1.7105,-1.7196,-1.7249,-1.7482,-1.7464,-1.7496,-1.7521,-1.7751,-1.7752,-1.7754,-1.7675,-1.7671,-1.7667,0,0,0,0,0,0,-1.64,-1.6572,-1.6612,-1.6712,-1.681,-1.696,-1.7002,-1.7054,-1.7153,-1.7156,-1.727,-1.7303,-1.7398,-1.7471,-1.7448,-1.7601,-1.7621,-1.7629,-1.755,-1.7547,-1.7544,-1.7525,-1.7517,0,0,0,0,0,-1.639,-1.6474,-1.662,-1.6694,-1.6742,-1.6863,-1.692,-1.6984,-1.7092,-1.7134,-1.7234,-1.7336,-1.7433,-1.7494,-1.7591,-1.7684,-1.7719,-1.7717,-1.7714,-1.771,-1.7716,-1.7771,-1.7773,-1.776,-1.776,-1.776,0,0,-1.6369,-1.6473,-1.652,-1.6677,-1.6761,-1.6847,-1.6897,-1.6986,-1.7051,-1.7148,-1.7254,-1.733,-1.7452,-1.7552,-1.7601,-1.7615,-1.7727,-1.7712,-1.7708,-1.7717,-1.7773,-1.7774,-1.7775,-1.7761,-1.7761,-1.7761,0,0,-1.6376,-1.6463,-1.6534,-1.6617,-1.6744,-1.6824,-1.684,-1.6983,-1.7037,-1.7145,-1.7219,-1.7298,-1.7462,-1.7546,-1.761,-1.7647,-1.77,-1.7675,-1.7658,-1.771,-1.7711,-1.7713,-1.7727,-1.773,-1.7681,-1.768,-1.768,0,-1.6335,-1.6466,-1.6565,-1.6649,-1.6716,-1.6807,-1.688,-1.6956,-1.7108,-1.7152,-1.7166,-1.7373,-1.7461,-1.7583,-1.7591,-1.764,-1.7664,-1.766,-1.7703,-1.7706,-1.7708,-1.7723,-1.7728,-1.7677,-1.7677,-1.7677,-1.7678,0,-1.6409,-1.6499,-1.6542,-1.6685,-1.6757,-1.6835,-1.6946,-1.7007,-1.7064,-1.7143,-1.7252,-1.7361,-1.7481,-1.7515,-1.7572,-1.7644,-1.7649,-1.7681,-1.7704,-1.7704,-1.772,-1.7726,-1.7671,-1.7673,-1.7674,-1.7675,0,0,-1.6362,-1.6557,-1.6571,-1.6637,-1.6783,-1.6855,-1.6937,-1.7054,-1.7104,-1.7205,-1.7278,-1.7414,-1.7444,-1.7517,-1.7585,-1.7631,-1.7654,-1.7658,-1.7662,-1.7654,-1.774,-1.7716,-1.772,-1.7689,-1.769,-1.7692,-1.773,0,-1.6389,-1.654,-1.663,-1.6745,-1.6829,-1.6916,-1.6988,-1.7085,-1.7161,-1.7244,-1.7328,-1.7422,-1.7455,-1.75,-1.7549,-1.764,-1.7673,-1.7639,-1.7759,-1.7762,-1.7726,-1.7729,-1.7703,-1.7734,-1.7737,-1.7738,-1.7739,0,-1.6441,-1.6539,-1.6661,-1.6797,-1.6836,-1.6899,-1.7013,-1.7091,-1.7203,-1.7255,-1.7335,-1.7403,-1.7495,-1.7509,-1.7637,-1.7611,-1.7666,-1.7718,-1.7722,-1.7737,-1.7751,-1.7745,-1.7747,-1.7751,-1.7749,-1.7748,-1.7748,0,-1.6394,-1.6557,-1.6651,-1.6705,-1.6865,-1.6908,-1.6977,-1.7089,-1.7153,-1.7253,-1.7296,-1.7405,-1.7466,-1.7549,-1.7645,-1.7647,-1.7764,-1.7786,-1.781,-1.7807,-1.7831,-1.7829,-1.7842,-1.7865,-1.7864,-1.7864,-1.7864,0,-1.6415,-1.6487,-1.6632,-1.669,-1.6773,-1.6877,-1.6956,-1.7033,-1.7131,-1.7206,-1.7288,-1.7357,-1.7479,-1.7563,-1.7639,-1.7734,-1.776,-1.7805,-1.7824,-1.7798,-1.7793,-1.7836,-1.7837,-1.7866,-1.7865,-1.7865,-1.7865,0,-1.6378,-1.6478,-1.6586,-1.6729,-1.6766,-1.6821,-1.6944,-1.7004,-1.7083,-1.7177,-1.7205,-1.733,-1.7433,-1.7537,-1.7676,-1.7727,-1.782,-1.7846,-1.7782,-1.7793,-1.7811,-1.7808,-1.7854,-1.7866,-1.7878,-1.7878,-1.7878,0,-1.6385,-1.6442,-1.659,-1.6646,-1.6712,-1.6801,-1.6867,-1.6971,-1.7036,-1.7168,-1.7212,-1.7321,-1.7414,-1.7575,-1.7679,-1.7786,-1.7816,-1.7824,-1.7832,-1.7804,-1.7817,-1.7812,-1.7819,-1.7821,-1.782,-1.7819,-1.7819,0,-1.6388,-1.6434,-1.6525,-1.6633,-1.6709,-1.6799,-1.6893,-1.6934,-1.7056,-1.7126,-1.7231,-1.7303,-1.7445,-1.7553,-1.7672,-1.7744,-1.7803,-1.7815,-1.7827,-1.7801,-1.7762,-1.7784,-1.7773,-1.7814,-1.7815,-1.7815,-1.7815,-1.7816,-1.6374,-1.6429,-1.6541,-1.664,-1.672,-1.6806,-1.6869,-1.6955,-1.7045,-1.7168,-1.7224,-1.733,-1.7442,-1.7608,-1.7679,-1.7765,-1.778,-1.7796,-1.7801,-1.7803,-1.7798,-1.7747,-1.7787,-1.7787,-1.7787,-1.7788,-1.7788,0,-1.6382,-1.6458,-1.6547,-1.6675,-1.6752,-1.6798,-1.6904,-1.6966,-1.7059,-1.7157,-1.7246,-1.7368,-1.7472,-1.7584,-1.7695,-1.7742,-1.7772,-1.7768,-1.7766,-1.7782,-1.7777,-1.7756,-1.7742,-1.7742,-1.7742,-1.7742,-1.7742,-1.7742,-1.6395,-1.6489,-1.6549,-1.6684,-1.6761,-1.6865,-1.6921,-1.7001,-1.708,-1.7211,-1.7298,-1.737,-1.7474,-1.7593,-1.7691,-1.7722,-1.7759,-1.7748,-1.7786,-1.7779,-1.7782,-1.7785,-1.7767,-1.7755,-1.7755,-1.7784,-1.7784,-1.7785]},{"header":{"parameterUnit":"m.s-1","parameterCategory":1,"la1":30.2991,"la2":30.254,"lo1":-89.0895,"lo2":-89.0444,"dy":0.0017,"dx":0.0017,"nx":28,"ny":28,"refTime":"2025-12-20T09:00:00:Z","depth":0,"parameterNumber":3,"parameterNumberName":"V-component_of_WINDS"},"data":[0,0,0,0,0,0,0,0,0,0,0,0,0,0,0,0,0,0,0,0,0,0,0,0,0,0,0,0,0,0,0,0,0,0,0,0,0,0,0,0,0,0,0,0,0,0,0,0,0,0,0,0,0,0,0,0,0,0,2.5334,2.5334,0,2.5389,2.539,2.539,2.5348,2.5346,2.5344,2.5342,2.5398,2.5401,2.5404,0,0,0,0,0,0,0,0,0,0,0,0,0,2.519,2.5193,2.5334,2.5334,2.5335,2.5389,2.539,2.5391,2.5348,2.5346,2.5344,2.5342,2.5397,2.5401,2.5404,0,0,0,0,0,0,0,0,0,0,0,0,0,2.5249,2.5194,2.5333,2.532,2.532,2.5389,2.539,2.5391,2.5349,2.5346,2.5343,2.5341,2.5396,2.54,2.5405,2.549,0,0,2.542,2.5422,0,0,0,0,0,0,0,0,2.5246,2.5255,2.5322,2.5321,2.5321,2.5359,2.5359,2.5424,2.5349,2.5338,2.5342,2.5339,2.5387,2.5392,2.5409,2.5492,2.5495,2.542,2.5423,2.5425,2.5426,0,0,0,0,0,0,0,2.5242,2.5252,2.5355,2.5323,2.5322,2.5311,2.5317,2.5371,2.5377,2.5338,2.5336,2.5343,2.5386,2.5404,2.541,2.5495,2.542,2.5424,2.5427,2.5429,2.5651,2.5654,0,0,0,0,0,0,2.5239,2.5249,2.5354,2.5357,2.5276,2.5316,2.5322,2.5349,2.5376,2.5378,2.5345,2.5341,2.5397,2.5404,2.5412,2.5513,2.5425,2.5429,2.5432,2.5648,2.5652,2.5655,0,0,0,0,0,0,2.5236,2.5249,2.5351,2.5302,2.5315,2.5322,2.5352,2.5352,2.537,2.5381,2.5382,2.5363,2.5396,2.5405,2.5471,2.5514,2.5432,2.5436,2.5645,2.5649,2.5654,2.5716,0,0,0,0,0,0,2.5232,2.5248,2.5281,2.5303,2.5317,2.541,2.5355,2.5355,2.5378,2.5373,2.5398,2.5399,2.5394,2.5464,2.5476,2.5519,2.544,2.5641,2.5647,2.5652,2.571,2.5723,2.5733,0,0,0,0,0,2.5227,2.5296,2.5283,2.5296,2.5358,2.5413,2.5421,2.5414,2.5382,2.5415,2.5422,2.5399,2.5507,2.5471,2.5484,2.553,2.5638,2.5645,2.5652,2.5705,2.572,2.5733,0,0,0,0,0,0,2.5278,2.5298,2.5284,2.5362,2.5386,2.5406,2.5447,2.543,2.5463,2.5457,2.5446,2.5452,2.5521,2.5532,2.5491,2.5613,2.5568,2.5577,2.5604,2.5618,2.5629,2.5626,2.5444,0,0,0,0,0,2.5298,2.5341,2.5357,2.5424,2.5437,2.544,2.5463,2.5456,2.548,2.549,2.5502,2.5526,2.5566,2.5592,2.5629,2.5711,2.5716,2.5749,2.576,2.577,2.5778,2.5823,2.5838,2.5678,2.5678,2.5678,0,0,2.534,2.5357,2.5384,2.5434,2.5452,2.5497,2.5449,2.5498,2.5531,2.5497,2.5561,2.5571,2.5597,2.5671,2.5705,2.5682,2.5824,2.5778,2.5785,2.5789,2.5832,2.5847,2.5861,2.5682,2.5682,2.5681,0,0,2.544,2.5456,2.5515,2.5534,2.5561,2.5563,2.5577,2.5599,2.5605,2.5668,2.5644,2.5683,2.5751,2.5771,2.5791,2.5898,2.5878,2.591,2.5969,2.6013,2.6026,2.6037,2.6076,2.609,2.5919,2.5919,2.5919,0,2.5489,2.5556,2.5546,2.5598,2.5621,2.5593,2.5652,2.567,2.5709,2.5725,2.5699,2.5785,2.58,2.588,2.5906,2.5922,2.5938,2.5908,2.6025,2.6036,2.6046,2.6083,2.6098,2.5923,2.5922,2.5922,2.5922,0,2.5615,2.5661,2.5705,2.5744,2.5771,2.5826,2.5825,2.5854,2.5844,2.5848,2.5913,2.5931,2.5971,2.5989,2.598,2.6067,2.6053,2.6026,2.598,2.6065,2.61,2.6114,2.5928,2.5927,2.5926,2.5925,0,0,2.5748,2.5781,2.5798,2.5815,2.5844,2.588,2.5933,2.5973,2.5998,2.6025,2.607,2.6129,2.6105,2.6126,2.6118,2.6157,2.6242,2.6125,2.6126,2.6147,2.6341,2.6362,2.6378,2.6228,2.6231,2.6233,2.6339,0,2.5851,2.5945,2.5938,2.6027,2.607,2.6044,2.609,2.6113,2.6118,2.6155,2.616,2.6203,2.6167,2.618,2.6217,2.6224,2.6281,2.6216,2.627,2.6272,2.6266,2.6396,2.6419,2.6518,2.6352,2.6355,2.6356,0,2.5983,2.6015,2.6108,2.6131,2.6149,2.6191,2.6228,2.6263,2.6288,2.6289,2.6314,2.63,2.6353,2.6306,2.638,2.6336,2.6357,2.6364,2.6368,2.6374,2.632,2.6407,2.6549,2.6565,2.6378,2.6376,2.6374,0,2.6073,2.6139,2.6204,2.622,2.6247,2.6278,2.629,2.6312,2.6337,2.6369,2.6385,2.6422,2.6442,2.6471,2.6468,2.6433,2.6543,2.6495,2.6546,2.6546,2.6572,2.657,2.6721,2.6583,2.6583,2.6583,2.6583,0,2.6188,2.6246,2.6245,2.6285,2.6349,2.6341,2.6405,2.6414,2.6434,2.6475,2.6454,2.6493,2.6485,2.6523,2.652,2.6583,2.6592,2.6594,2.6593,2.6597,2.6597,2.6612,2.6606,2.6587,2.6586,2.6585,2.6585,0,2.63,2.6301,2.637,2.6391,2.6397,2.6444,2.6461,2.6499,2.6502,2.6555,2.6566,2.6571,2.6616,2.6615,2.6665,2.6663,2.674,2.673,2.6732,2.673,2.6782,2.6778,2.6948,2.6971,2.6818,2.6819,2.6821,0,2.6374,2.6419,2.6444,2.6471,2.6486,2.6528,2.6553,2.6546,2.6574,2.6605,2.6639,2.6682,2.6716,2.6788,2.6796,2.6834,2.6826,2.6883,2.6831,2.6834,2.6828,2.6826,2.6831,2.6893,2.6895,2.6896,2.6898,0,2.6507,2.6505,2.6543,2.6581,2.6612,2.6642,2.6669,2.6691,2.6687,2.6719,2.6764,2.6791,2.6842,2.6885,2.6922,2.6934,2.6916,2.6913,2.6928,2.6933,2.6933,2.6935,2.6761,2.691,2.6909,2.6908,2.6907,2.6907,2.6603,2.6642,2.6666,2.6709,2.6728,2.6754,2.6791,2.6799,2.6837,2.6879,2.6872,2.6923,2.6947,2.6995,2.701,2.705,2.703,2.705,2.7055,2.7061,2.7067,2.6925,2.7057,2.7056,2.7056,2.7056,2.7055,0,2.6736,2.675,2.6789,2.6828,2.6862,2.6841,2.687,2.69,2.6945,2.6969,2.7003,2.7055,2.7097,2.7108,2.7148,2.7177,2.717,2.7188,2.7186,2.719,2.7083,2.7067,2.7193,2.7193,2.7193,2.7193,2.7193,2.7193,2.6809,2.6873,2.6875,2.6949,2.6962,2.7013,2.7031,2.7055,2.7074,2.7134,2.7168,2.7175,2.7194,2.7235,2.7272,2.7274,2.729,2.7312,2.7311,2.7211,2.7197,2.7184,2.717,2.7315,2.7316,2.7415,2.7416,2.7417]}]]